Theta_e
330 330 332 334 333 331 331 332 331 332 334 335 338 341 342 343 346 347 343 342 347 351 359 359 360 360 360 357 358 357 357 359 357 351 350 351 351 355 358 359 359 359 362 365
331 330 331 332 332 333 331 331 331 331 332 335 335 336 343 345 348 348 344 342 346 353 360 361 363 363 363 361 362 362 361 356 353 353 354 367 366 364 364 364 364 365 365 364
330 330 330 332 332 332 332 332 331 331 333 334 334 335 340 346 349 350 346 342 345 351 355 357 360 360 361 360 359 358 357 355 362 367 367 366 365 364 363 363 362 362 361 359
329 330 332 331 331 332 332 331 332 332 333 333 333 334 335 338 346 351 349 344 344 346 348 352 353 355 355 359 361 358 363 367 367 367 365 362 359 356 353 351 349 348 348 350
332 330 330 330 331 331 331 331 331 332 332 333 333 333 334 335 337 346 352 347 342 344 347 349 350 355 360 363 364 367 366 366 364 361 357 352 348 344 343 343 341 340 338 339
332 331 331 331 332 332 332 333 332 332 333 332 333 333 334 335 336 337 349 349 343 343 350 351 353 358 361 361 363 364 363 360 357 352 347 342 342 342 343 342 340 337 338 337
334 333 332 332 332 332 332 331 332 333 333 333 333 333 334 335 339 342 346 350 345 346 353 354 357 358 360 361 361 361 360 356 349 344 343 343 345 344 343 342 343 342 341 339
335 335 334 333 334 332 341 341 343 342 338 337 335 335 344 345 345 345 348 351 346 353 355 357 357 359 360 361 362 359 352 346 345 344 342 340 343 344 344 343 341 341 339 338
335 334 346 341 344 344 342 342 342 344 343 342 341 344 349 350 351 353 355 354 355 355 356 358 359 359 361 362 357 349 345 345 344 344 344 344 344 344 341 338 335 332 328 328
338 342 342 341 340 340 341 341 343 343 343 344 346 350 351 351 356 362 361 360 358 361 361 360 359 359 359 352 347 346 346 345 345 345 344 342 340 338 334 333 331 329 328 329
346 345 345 346 345 345 344 344 345 345 345 347 351 353 356 358 360 361 361 361 362 360 358 356 351 348 348 346 346 345 343 343 343 340 338 336 334 332 330 329 329 329 330 330
348 348 348 347 343 343 345 348 350 351 352 354 356 359 360 360 360 356 354 353 354 353 351 349 348 346 343 342 340 341 340 339 338 335 333 332 331 331 330 329 329 329 330 330
345 344 342 341 342 342 343 345 347 349 353 357 355 350 349 352 350 350 351 352 350 348 345 345 343 341 341 340 340 340 339 337 335 332 331 331 332 331 330 329 329 328 329 328
340 341 341 340 341 340 341 340 339 342 343 344 345 345 346 347 347 347 348 346 344 341 342 341 341 342 341 339 339 338 336 333 332 332 332 331 331 330 329 329 329 328 326 323
339 339 341 341 340 340 339 341 341 342 342 343 343 342 341 345 346 345 344 343 343 343 343 342 341 339 338 336 335 335 334 332 332 332 330 328 328 328 327 326 324 323 322 322
338 337 338 340 340 339 338 339 340 341 341 342 343 344 345 345 344 343 342 342 342 341 339 339 336 335 335 335 334 333 331 329 329 329 327 326 325 323 321 321 322 322 321 320
337 338 337 338 338 338 339 339 342 341 342 342 342 341 341 341 340 340 339 339 339 337 335 335 336 335 334 333 332 330 330 328 325 324 322 320 320 320 320 320 319 318 316 315
337 337 337 337 336 338 339 340 341 340 341 339 339 339 339 340 341 339 337 335 335 334 335 336 332 332 331 328 326 326 324 322 320 319 318 318 319 318 317 314 313 311 310 309
336 336 335 334 334 336 338 339 340 339 339 338 338 338 337 337 338 336 334 334 334 335 336 332 328 329 327 320 313 319 319 318 316 316 317 316 314 312 311 309 308 308 308 309
335 335 335 336 336 337 339 338 337 337 337 337 336 336 335 334 334 334 333 334 333 332 331 329 328 326 324 318 314 317 315 315 316 315 313 310 309 308 308 307 307 307 307 306
335 335 336 336 337 336 336 336 336 335 334 334 335 335 334 333 332 332 332 335 332 330 327 325 324 321 318 313 316 314 315 314 313 311 309 308 306 306 306 306 305 305 304 304
334 334 334 334 334 334 333 333 333 333 333 333 334 333 334 333 332 333 331 332 328 325 325 324 317 309 312 313 313 314 313 311 309 306 304 304 304 304 304 304 304 304 303 303
334 334 334 333 333 332 332 333 333 333 333 333 333 332 331 330 328 328 334 330 327 324 324 318 309 308 311 313 313 313 311 308 305 304 303 303 303 303 303 303 303 303 304 303
334 333 334 332 332 333 335 333 332 331 332 331 331 330 329 327 330 330 326 326 323 322 320 314 312 309 311 313 313 313 311 308 306 305 304 304 304 304 304 303 303 303 303 305
330 330 329 329 331 330 329 330 330 330 331 331 333 331 328 329 327 328 326 321 319 319 316 310 311 310 312 312 313 313 312 311 308 309 308 306 306 303 303 303 303 302 303 306
327 326 326 326 326 325 324 323 323 327 329 330 330 328 327 327 327 326 323 321 318 313 313 312 311 313 311 311 312 312 311 310 311 311 310 310 309 307 305 304 303 303 303 307
325 323 327 327 326 325 326 324 324 324 326 325 328 327 327 326 324 323 321 319 314 312 312 311 310 309 311 311 310 310 311 310 308 309 309 310 310 309 309 309 308 308 307 307
Wind_Speed
24 25 23 26 23 24 27 23 23 20 15 16 12 15 13 14 17 16 14 14 12 12 11 13 14 14 13 13 12 8 6 4 4 4 3 3 5 8 10 11 13 16 16 17
24 25 26 25 20 25 25 23 23 21 22 16 14 10 16 15 19 18 17 15 15 14 14 16 16 15 14 12 12 9 8 5 5 5 4 3 3 3 5 7 9 11 12 13
23 23 25 24 24 20 18 18 17 19 18 10 9 10 14 17 17 19 19 17 18 17 16 19 18 16 14 12 10 9 9 8 7 8 7 4 2 1 2 4 6 7 10 11
19 22 26 14 22 24 22 20 19 20 16 14 11 14 11 16 22 22 21 19 18 17 22 22 20 17 15 13 12 13 12 10 8 7 6 4 3 2 3 4 6 9 11 11
18 19 20 22 26 24 21 25 19 20 19 11 11 14 17 15 12 21 26 21 22 24 24 22 22 20 19 16 15 13 12 10 9 8 6 4 1 2 4 7 9 11 12 13
14 22 25 20 22 17 15 21 22 25 18 19 15 11 11 11 16 21 25 29 26 25 25 21 21 21 19 17 15 13 12 11 9 6 4 1 1 4 4 7 11 13 15 16
17 14 16 22 13 19 22 14 15 22 23 14 16 8 8 14 17 19 22 31 30 27 25 22 21 21 18 16 14 14 12 10 8 4 2 2 2 5 9 11 13 15 18 19
17 18 20 4 6 11 6 7 8 9 6 1 5 6 2 6 12 9 19 26 27 25 23 23 22 20 18 15 14 14 14 11 8 4 4 5 5 9 12 14 17 19 20 20
15 17 9 4 3 7 5 2 3 4 4 2 6 5 2 3 2 4 17 19 22 20 21 20 18 18 17 16 15 13 10 6 3 2 5 6 10 13 13 19 20 22 22 21
11 6 7 5 4 2 1 2 1 3 2 3 5 6 5 7 10 11 13 16 19 20 18 16 15 15 17 16 15 12 9 7 2 4 7 11 13 16 19 19 19 21 22 21
12 13 7 10 9 7 6 5 4 5 5 7 10 9 10 11 11 11 14 13 18 17 17 16 16 17 14 12 6 3 2 3 2 9 12 13 18 19 20 21 19 19 21 23
8 11 12 11 8 9 10 10 10 12 12 13 14 15 16 15 15 16 16 16 16 16 16 15 14 14 14 14 11 6 5 10 7 11 16 19 21 22 22 21 22 23 21 22
10 12 14 12 11 12 13 16 16 15 16 17 18 18 18 14 16 17 16 16 16 16 16 14 14 7 6 7 8 3 3 8 13 14 18 19 20 21 23 23 20 21 23 23
11 10 11 12 10 11 12 14 13 16 16 15 17 17 19 16 15 13 12 12 13 13 13 13 8 9 4 4 1 3 7 13 14 15 17 20 20 22 25 25 24 25 24 22
10 10 12 8 9 10 10 10 10 10 11 11 15 13 14 13 13 12 12 11 10 10 9 9 6 5 2 4 5 7 12 15 14 16 18 18 20 23 23 25 25 27 27 26
8 9 9 11 7 5 5 8 11 9 9 10 10 13 14 15 14 13 12 11 9 10 7 6 3 2 3 5 8 12 12 7 9 13 17 20 22 22 24 25 25 25 27 27
5 9 6 8 5 5 5 4 11 10 10 11 13 15 15 15 14 12 11 10 10 9 6 3 3 3 5 7 9 11 11 13 13 14 16 19 21 21 22 25 26 24 24 24
6 4 3 4 3 6 7 8 10 11 11 15 16 15 14 12 11 11 9 7 6 4 5 6 6 6 7 7 8 9 10 12 15 18 19 20 20 22 21 20 20 22 24 25
8 5 2 1 3 5 7 9 12 13 13 14 14 13 13 12 10 8 5 3 2 4 6 8 7 6 5 6 10 9 12 15 17 18 19 20 19 18 17 18 21 22 22 22
8 7 5 4 4 9 9 12 14 14 13 13 13 12 12 10 8 6 4 6 8 7 6 6 5 5 5 6 9 10 12 15 16 16 16 16 15 17 17 20 20 19 19 19
7 7 8 9 11 13 14 14 14 12 11 10 10 9 9 7 5 3 6 10 9 8 9 7 6 5 6 7 9 10 12 14 15 16 15 15 17 17 18 18 18 16 17 19
2 5 7 8 9 10 11 12 11 9 8 7 8 8 7 6 4 5 5 7 9 7 5 6 5 5 5 6 8 10 11 12 13 13 15 16 16 16 16 16 17 15 17 19
1 5 5 7 9 9 9 8 6 6 5 6 6 5 4 2 3 1 8 7 8 6 5 5 3 5 5 5 7 8 9 11 11 13 13 13 12 13 12 14 13 15 17 20
9 18 12 8 6 8 7 4 5 3 4 4 5 4 4 6 11 9 11 10 11 8 8 6 2 4 5 4 6 5 6 9 10 11 14 13 13 13 14 15 16 15 16 17
9 9 6 4 2 6 2 1 5 6 5 5 4 3 4 2 6 6 12 10 10 6 6 3 4 5 3 4 4 5 6 5 6 7 8 9 10 14 12 11 12 15 14 15
11 11 9 5 3 4 6 8 10 5 10 11 7 6 8 6 7 8 10 10 7 5 4 4 3 2 1 3 3 4 4 5 4 4 6 6 6 6 9 10 12 14 12 14
4 2 2 1 3 5 6 9 9 5 1 4 7 4 6 6 7 10 7 7 6 4 3 3 3 2 1 0 1 2 2 2 3 4 5 5 6 6 6 6 8 10 12 14
Wind_Direction
242 256 251 220 206 221 237 242 248 248 213 249 182 184 201 207 170 171 184 181 160 149 141 154 151 156 167 167 170 173 167 190 194 213 245 273 279 277 280 279 277 272 274 276
240 246 253 254 241 227 221 230 249 262 255 209 213 229 181 212 180 185 189 186 168 154 159 163 160 161 159 158 158 164 167 194 190 206 223 218 239 268 288 297 300 300 297 296
245 242 246 238 241 229 250 215 234 241 249 262 260 199 185 192 204 197 198 189 175 168 171 168 166 165 161 156 157 157 163 172 177 184 177 174 181 233 323 316 314 306 306 308
239 239 243 239 240 239 240 242 221 242 252 224 240 253 224 219 199 196 201 197 182 173 172 166 164 163 156 157 161 163 164 162 158 158 144 135 112 46 357 340 330 323 318 315
239 238 253 234 245 241 215 234 233 232 235 231 227 242 245 251 242 203 196 200 194 182 168 168 159 157 158 156 160 164 153 149 151 153 149 135 94 15 340 327 321 314 308 308
228 240 235 236 248 239 258 225 224 230 227 223 226 238 262 252 245 230 194 193 191 188 155 168 162 160 158 156 158 158 156 157 157 154 150 138 308 309 307 305 303 304 301 299
235 235 235 256 256 250 209 239 241 232 227 204 237 268 318 314 318 293 195 183 183 167 159 169 170 159 161 158 164 166 159 152 148 151 185 227 275 297 299 300 299 295 293 288
229 231 236 221 199 245 68 64 10 347 11 352 319 321 359 289 283 269 188 165 176 150 166 164 172 161 156 160 148 154 159 158 163 189 278 339 315 298 298 297 294 287 283 284
225 226 98 100 22 63 33 68 25 335 341 334 244 119 193 151 238 85 118 129 139 159 161 171 164 162 153 140 151 156 155 156 179 234 283 295 297 288 287 290 292 300 301 301
213 120 99 73 98 60 297 284 323 251 194 197 137 130 158 147 133 124 126 145 157 137 150 158 150 146 141 149 156 161 181 165 216 274 287 277 279 289 299 299 304 309 307 308
121 110 131 80 58 62 78 106 109 100 106 103 114 123 118 112 119 136 141 126 127 137 148 149 136 121 130 138 132 124 240 197 243 278 274 278 281 289 291 291 291 290 290 295
107 114 83 99 91 84 96 97 98 103 105 105 109 114 116 115 98 99 105 119 137 147 145 139 137 132 139 142 142 157 240 283 302 299 294 297 301 301 298 293 286 274 270 270
110 93 106 109 111 110 107 108 105 102 106 111 111 109 106 97 96 103 103 102 96 95 105 124 128 142 135 132 106 185 294 297 291 302 300 298 298 300 302 305 314 305 285 278
96 116 122 126 118 116 109 109 107 108 111 114 110 105 103 110 99 102 102 107 116 122 127 127 134 125 141 105 155 342 306 287 284 293 306 313 318 311 301 305 299 300 305 311
69 72 85 71 109 120 124 114 116 116 118 120 113 116 107 100 97 98 106 116 119 119 109 103 122 108 41 340 327 298 287 296 308 311 311 313 305 299 291 294 307 307 305 305
62 70 109 123 116 135 143 161 128 115 118 109 108 104 102 108 112 114 115 117 131 111 104 91 74 32 339 324 305 302 308 62 354 317 309 305 296 310 310 305 307 312 314 315
24 90 90 102 109 84 56 46 112 120 119 114 117 119 119 117 114 113 112 105 105 107 104 78 18 331 320 326 335 327 327 318 328 303 306 314 311 311 321 321 315 316 312 309
41 53 44 54 30 109 111 105 120 129 125 125 124 125 127 120 114 113 110 117 113 112 96 67 30 8 41 23 355 336 325 319 322 322 320 322 336 323 324 324 317 313 309 308
33 42 55 148 196 140 141 131 121 126 129 130 128 120 117 118 117 118 130 126 126 120 96 82 73 68 56 27 6 340 338 335 330 330 330 331 326 324 323 318 315 311 311 317
47 52 68 92 123 133 127 128 134 133 131 124 123 121 118 119 126 130 128 84 59 68 81 97 88 66 49 13 5 353 347 342 343 337 333 330 328 324 322 324 322 323 327 329
67 78 89 100 110 119 123 126 129 128 129 127 125 122 120 118 118 146 168 129 109 113 107 95 71 36 26 14 3 4 358 353 348 342 334 333 336 336 337 339 338 337 337 336
104 109 113 115 113 112 116 112 112 116 112 117 123 134 142 147 164 137 76 107 126 127 125 108 72 57 48 38 21 18 11 4 0 354 357 356 354 353 354 355 351 352 355 357
134 144 137 135 118 118 116 118 122 128 136 144 157 163 216 344 342 166 133 118 135 156 117 110 109 76 65 35 28 25 24 24 17 17 18 14 13 14 12 13 15 17 19 22
41 24 29 72 87 86 72 39 19 114 165 183 192 174 248 291 147 111 103 121 130 134 133 140 101 88 71 40 34 34 38 35 26 29 42 48 45 39 38 35 30 20 20 16
91 80 52 352 194 120 152 136 235 196 201 189 185 208 285 86 357 66 118 120 127 134 135 146 104 112 59 49 42 42 45 35 26 29 29 25 22 28 30 26 22 22 29 20
152 143 127 78 52 0 20 4 329 187 174 172 203 203 102 84 87 123 128 137 143 148 144 137 149 125 86 49 41 39 33 19 16 21 13 12 14 18 23 27 27 20 17 9
176 274 109 230 94 344 17 345 310 336 33 343 98 103 99 110 120 135 133 139 140 157 152 130 151 133 133 321 12 356 356 5 14 15 353 5 13 7 2 354 354 357 4 11